This is the latest recevied weather packets stored in our database for station/object N4RCT. If no packets are shown the sender has not sent any weather packets the latest 10 day(s).
| Time | Temp. | Humidity | Pressure | Rain* | Wind** | Luminosity | Snow |
|---|---|---|---|---|---|---|---|
| 1777929577 | 25° C | 46% | 1012.6 hPa | 0 mm | - | 97 W/m² | - |
| 1777929273 | 25° C | 44% | 1012.7 hPa | 0 mm | - | 274 W/m² | - |
| 1777928970 | 25° C | 44% | 1012.9 hPa | 0 mm | - | 92 W/m² | - |
| 1777928667 | 25° C | 43% | 1012.6 hPa | 0 mm | - | 96 W/m² | - |
| 1777928364 | 25° C | 44% | 1012.9 hPa | 0 mm | - | 94 W/m² | - |
| 1777928062 | 24.44° C | 46% | 1012.9 hPa | 0 mm | - | 94 W/m² | - |
| 1777927760 | 24.44° C | 47% | 1012.8 hPa | 0 mm | - | 111 W/m² | - |
| 1777927458 | 24.44° C | 46% | 1012.7 hPa | 0 mm | - | 124 W/m² | - |
| 1777927157 | 25° C | 47% | 1013 hPa | 0 mm | - | 138 W/m² | - |
| 1777926854 | 25° C | 44% | 1012.9 hPa | 0 mm | - | 230 W/m² | - |
| 1777926549 | 25° C | 47% | 1013.2 hPa | 0 mm | - | 182 W/m² | - |
| 1777926247 | 25.56° C | 46% | 1013 hPa | 0 mm | - | 132 W/m² | - |
| 1777925943 | 25.56° C | 45% | 1013.3 hPa | 0 mm | - | 142 W/m² | - |
| 1777925641 | 25.56° C | 42% | 1013.2 hPa | 0 mm | - | 150 W/m² | - |
| 1777925338 | 25° C | 47% | 1013.3 hPa | 0 mm | - | 194 W/m² | - |
| 1777925034 | 24.44° C | 53% | 1013.5 hPa | 0 mm | - | 203 W/m² | - |
| 1777924731 | 24.44° C | 50% | 1013.5 hPa | 0 mm | - | 197 W/m² | - |
| 1777924426 | 24.44° C | 49% | 1013.6 hPa | 0 mm | - | 181 W/m² | - |
| 1777924123 | 25° C | 45% | 1013.6 hPa | 0 mm | - | 189 W/m² | - |
| 1777923819 | 25° C | 43% | 1013.5 hPa | 0 mm | - | 281 W/m² | - |
| 1777923515 | 25° C | 46% | 1013.8 hPa | 0 mm | - | 551 W/m² | - |
| 1777923213 | 24.44° C | 45% | 1013.8 hPa | 0 mm | - | 478 W/m² | - |
| 1777922912 | 25° C | 47% | 1013.7 hPa | 0 mm | - | 507 W/m² | - |
| 1777922609 | 25.56° C | 44% | 1014.2 hPa | 0 mm | - | 215 W/m² | - |
| 1777922308 | 26.11° C | 42% | 1014.3 hPa | 0 mm | - | 688 W/m² | - |
* Rain latest hour (hover to see other rain measurements)
** Current wind speed in m/s (hover to see current wind gust speed)